Location: Peebles
(55.6412°N, 3.1714°W)
Time: 09:07:35
(UTC+01:00)

Ariane Rocket - Pass Details

Date: 26 September 2021
Orbit: 760 x 769 km, 98.7° (Epoch: 20 October)

Event Time Altitude Azimuth Distance (km) Brightness Sun altitude
Exits shadow 21:22:33 28° 167° (SSE) 1,409 4.0 -20.1°
Maximum altitude 21:25:18 84° 254° (WSW) 780 3.0 -20.4°
Drops below altitude 10° 21:30:26 10° 343° (NNW) 2,323 6.1 -21.1°
Sets 21:32:46 0° 344° (NNW) 3,255 7.0 -21.4°
